La Paz, Mexico

6:31 AM MDT on September 27, 2016 (GMT -0600)
Gen Manuel Marquez De Leon

Weather History for MMLP - October, 2012

Change the Weather History Date:

Thursday, October 11, 2012

  Actual Average Record
Temperature  
Mean Temperature 84 °F -  
Max Temperature 95 °F 92 °F 100 °F (1999)
Min Temperature 73 °F 68 °F 64 °F (2003)
Cooling Degree Days 19    
Growing Degree Days 34 (Base 50)    
Moisture  
Dew Point 65 °F    
Average Humidity 63    
Maximum Humidity 88    
Minimum Humidity 28    
Precipitation  
Precipitation 0.00 in - - ()
Sea Level Pressure  
Sea Level Pressure 29.93 in    
Wind  
Wind Speed 6 mph ()    
Max Wind Speed 13 mph    
Max Gust Speed -    
Visibility 11.1 miles    
Events      
Averages and records for this station are not official NWS values.
T = Trace of Precipitation, MM = Missing Value Source: Averaged Metar Reports

Daily Weather History Graph

Daily Weather History Graph

Search for Another Location

Airport or City:

Trip Planner

Search our weather history database for the weather conditions in past years. The results will help you decide how hot, cold, wet, or windy it might be!

Date:

Astronomy

Oct. 11, 2012 Rise Set
Actual Time 7:17 AM MDT 6:58 PM MDT
Civil Twilight 6:54 AM MDT 7:20 PM MDT
Nautical Twilight 6:28 AM MDT 7:47 PM MDT
Astronomical Twilight 6:02 AM MDT 8:13 PM MDT
Moon 3:24 AM MDT (10/11) 4:15 PM MDT (10/11)
Length of Visible Light 12h 26m
Length of Day
11h 40m
Waning Crescent, 18% of the Moon is Illuminated
Oct 11
Waning Crescent
Oct 15
New
Oct 21
First Quarter
Oct 29
Full
Nov 6
Last Quarter

Hourly Weather History & Observations

Time (MDT) Temp. Heat Index Dew Point Humidity Pressure Visibility Wind Dir Wind Speed Gust Speed Precip Events Conditions
12:43 AM 73.4 °F - 68.0 °F 83% 29.91 in 10.0 mi South 5.8 mph - N/A   Clear
1:40 AM 71.6 °F - 68.0 °F 88% 29.91 in 10.0 mi South 10.4 mph - N/A   Clear
2:57 AM 71.6 °F - 66.2 °F 83% 29.96 in 10.0 mi South 6.9 mph - N/A   Clear
3:48 AM 71.6 °F - 64.4 °F 78% 29.90 in 10.0 mi South 4.6 mph - N/A   Scattered Clouds
4:47 AM 71.6 °F - 64.4 °F 78% 29.89 in 10.0 mi South 9.2 mph - N/A   Partly Cloudy
5:42 AM 71.6 °F - 64.4 °F 78% 29.95 in 10.0 mi South 9.2 mph - N/A   Clear
6:40 AM 69.8 °F - 64.4 °F 83% 29.91 in 10.0 mi South 9.2 mph - N/A   Clear
7:40 AM 68.0 °F - 64.4 °F 88% 29.92 in 10.0 mi South 4.6 mph - N/A   Clear
8:47 AM 69.8 °F - 66.2 °F 88% 29.99 in 10.0 mi South 6.9 mph - N/A   Scattered Clouds
8:50 AM 76 °F - 67 °F 66% 29.94 in 16 mi South 4.5 mph - -   Scattered Clouds
9:41 AM 75.2 °F - 64.4 °F 69% 29.96 in 10.0 mi South 9.2 mph - N/A   Scattered Clouds
10:46 AM 80.6 °F 82.3 °F 64.4 °F 58% 29.96 in 10.0 mi South 4.6 mph - N/A   Scattered Clouds
11:50 AM 87 °F - 65 °F 37% 29.96 in 19 mi South 2.2 mph - -   Mostly Cloudy
11:50 AM 82.4 °F 83.4 °F 62.6 °F 51% 30.02 in 10.0 mi SW 9.2 mph - N/A   Mostly Cloudy
12:40 PM 84.2 °F 85.0 °F 62.6 °F 48% 29.95 in 10.0 mi WSW 5.8 mph - N/A   Mostly Cloudy
1:45 PM 87.8 °F 87.6 °F 60.8 °F 40% 29.92 in 10.0 mi SSW 12.7 mph - N/A   Scattered Clouds
2:41 PM 87.8 °F 86.5 °F 57.2 °F 35% 29.95 in 12.0 mi SW 2.3 mph - N/A   Scattered Clouds
2:50 PM 93 °F - 69 °F 35% 29.89 in 19 mi SW 4.5 mph - -   Scattered Clouds
3:46 PM 91.4 °F 89.1 °F 53.6 °F 28% 29.88 in 12.0 mi SSW 5.8 mph - N/A   Partly Cloudy
4:51 PM 91.4 °F 91.4 °F 60.8 °F 36% 29.87 in 15.0 mi SW 8.1 mph - N/A   Scattered Clouds
5:50 PM 92 °F - 71 °F 41% 29.86 in 19 mi South 4.5 mph - -   Scattered Clouds
5:50 PM 89.6 °F 90.1 °F 62.6 °F 40% 29.93 in 15.0 mi SW 6.9 mph - N/A   Partly Cloudy
6:47 PM 84.2 °F 86.6 °F 66.2 °F 55% 29.87 in 10.0 mi WSW 6.9 mph - N/A   Partly Cloudy
7:41 PM 80.6 °F 83.2 °F 68.0 °F 65% 29.88 in 10.0 mi WSW 4.6 mph - N/A   Clear
8:43 PM 77.0 °F - 68.0 °F 74% 29.96 in 10.0 mi SSE 8.1 mph - N/A   Clear
8:50 PM 81 °F - 71 °F 64% 29.89 in 2 mi South 4.5 mph - -  
9:41 PM 75.2 °F - 68.0 °F 78% 29.93 in 10.0 mi SSE 9.2 mph - N/A   Clear
10:40 PM 75.2 °F - 68.0 °F 78% 29.94 in 10.0 mi South 9.2 mph - N/A   Clear
11:50 PM 77 °F - 70 °F 73% 29.93 in 2 mi South 4.5 mph - -